owner,sensor,date,latitude,longitude,vertical_datum,wind_speed,wind_to_direction,wind_speed_of_gust,qcFlag 
WAVCIS,ioos:station:WAVCIS:CSI09:1,2011-09-01T00:00:00Z,29.1015,-89.9782,0.0,7.15,69.0,,'11111222,11111222,99999999' 
WAVCIS,ioos:station:WAVCIS:CSI09:1,2011-09-01T01:00:00Z,29.1015,-89.9782,0.0,6.53,82.0,,'11111222,11111222,99999999' 
WAVCIS,ioos:station:WAVCIS:CSI09:1,2011-09-01T02:00:00Z,29.1015,-89.9782,0.0,6.901,83.0,,'11111222,11111222,99999999' 
WAVCIS,ioos:station:WAVCIS:CSI09:1,2011-09-01T03:00:00Z,29.1015,-89.9782,0.0,8.22,88.0,,'11111222,11111222,99999999' 
WAVCIS,ioos:station:WAVCIS:CSI09:1,2011-09-01T04:00:00Z,29.1015,-89.9782,0.0,7.45,86.0,,'11111222,11111222,99999999' 
WAVCIS,ioos:station:WAVCIS:CSI09:1,2011-09-01T05:00:00Z,29.1015,-89.9782,0.0,9.84,85.0,,'11111222,11111222,99999999' 
WAVCIS,ioos:station:WAVCIS:CSI09:1,2011-09-01T06:00:00Z,29.1015,-89.9782,0.0,7.67,91.0,,'11111222,11111222,99999999' 
WAVCIS,ioos:station:WAVCIS:CSI09:1,2011-09-01T07:00:00Z,29.1015,-89.9782,0.0,9.53,88.0,,'11111222,11111222,99999999' 
WAVCIS,ioos:station:WAVCIS:CSI09:1,2011-09-01T08:00:00Z,29.1015,-89.9782,0.0,10.27,78.0,,'11111222,11111222,99999999' 
WAVCIS,ioos:station:WAVCIS:CSI09:1,2011-09-01T09:00:00Z,29.1015,-89.9782,0.0,9.9,79.0,,'11111222,11111222,99999999' 
WAVCIS,ioos:station:WAVCIS:CSI09:1,2011-09-01T10:00:00Z,29.1015,-89.9782,0.0,10.6,82.0,,'11111222,11111222,99999999' 
WAVCIS,ioos:station:WAVCIS:CSI09:1,2011-09-01T11:00:00Z,29.1015,-89.9782,0.0,10.75,70.0,,'11111222,11111222,99999999' 
WAVCIS,ioos:station:WAVCIS:CSI09:1,2011-09-01T12:00:00Z,29.1015,-89.9782,0.0,10.21,69.0,,'11111222,11111222,99999999' 
WAVCIS,ioos:station:WAVCIS:CSI09:1,2011-09-01T13:00:00Z,29.1015,-89.9782,0.0,8.63,88.0,,'11111222,11111222,99999999' 
WAVCIS,ioos:station:WAVCIS:CSI09:1,2011-09-01T14:00:00Z,29.1015,-89.9782,0.0,8.87,82.0,,'11111222,11111222,99999999' 
WAVCIS,ioos:station:WAVCIS:CSI09:1,2011-09-01T15:00:00Z,29.1015,-89.9782,0.0,15.12,117.0,,'11111222,11111222,99999999' 
WAVCIS,ioos:station:WAVCIS:CSI09:1,2011-09-01T16:00:00Z,29.1015,-89.9782,0.0,13.76,128.0,,'11111222,11111222,99999999' 
WAVCIS,ioos:station:WAVCIS:CSI09:1,2011-09-01T17:00:00Z,29.1015,-89.9782,0.0,11.52,117.0,,'11111222,11111222,99999999' 
WAVCIS,ioos:station:WAVCIS:CSI09:1,2011-09-01T18:00:00Z,29.1015,-89.9782,0.0,11.23,123.0,,'11111222,11111222,99999999' 
WAVCIS,ioos:station:WAVCIS:CSI09:1,2011-09-01T19:00:00Z,29.1015,-89.9782,0.0,10.15,126.0,,'11111222,11111222,99999999' 
WAVCIS,ioos:station:WAVCIS:CSI09:1,2011-09-01T20:00:00Z,29.1015,-89.9782,0.0,9.84,71.0,,'11111222,11111222,99999999' 
WAVCIS,ioos:station:WAVCIS:CSI09:1,2011-09-01T21:00:00Z,29.1015,-89.9782,0.0,9.15,87.0,,'11111222,11111222,99999999' 
WAVCIS,ioos:station:WAVCIS:CSI09:1,2011-09-01T22:00:00Z,29.1015,-89.9782,0.0,9.21,92.0,,'11111222,11111222,99999999' 
WAVCIS,ioos:station:WAVCIS:CSI09:1,2011-09-01T23:00:00Z,29.1015,-89.9782,0.0,12.86,74.0,,'11111222,11111222,99999999' 
WAVCIS,ioos:station:WAVCIS:CSI09:1,2011-09-02T00:00:00Z,29.1015,-89.9782,0.0,16.05,74.0,,'11111222,11111222,99999999' 
WAVCIS,ioos:station:WAVCIS:CSI09:1,2011-09-02T01:00:00Z,29.1015,-89.9782,0.0,14.27,91.0,,'11111222,11111222,99999999' 
WAVCIS,ioos:station:WAVCIS:CSI09:1,2011-09-02T02:00:00Z,29.1015,-89.9782,0.0,13.93,90.0,,'11111222,11111222,99999999' 
WAVCIS,ioos:station:WAVCIS:CSI09:1,2011-09-02T03:00:00Z,29.1015,-89.9782,0.0,14.99,105.0,,'11111222,11111222,99999999' 
WAVCIS,ioos:station:WAVCIS:CSI09:1,2011-09-02T04:00:00Z,29.1015,-89.9782,0.0,13.52,99.0,,'11111222,11111222,99999999' 
WAVCIS,ioos:station:WAVCIS:CSI09:1,2011-09-02T05:00:00Z,29.1015,-89.9782,0.0,14.53,114.0,,'11111222,11111222,99999999' 
WAVCIS,ioos:station:WAVCIS:CSI09:1,2011-09-02T06:00:00Z,29.1015,-89.9782,0.0,11.9,115.0,,'11111222,11111222,99999999' 
WAVCIS,ioos:station:WAVCIS:CSI09:1,2011-09-02T07:00:00Z,29.1015,-89.9782,0.0,12.45,126.0,,'11111222,11111222,99999999' 
WAVCIS,ioos:station:WAVCIS:CSI09:1,2011-09-02T08:00:00Z,29.1015,-89.9782,0.0,11.19,127.0,,'11111222,11111222,99999999' 
WAVCIS,ioos:station:WAVCIS:CSI09:1,2011-09-02T09:00:00Z,29.1015,-89.9782,0.0,12.95,120.0,,'11111222,11111222,99999999' 
WAVCIS,ioos:station:WAVCIS:CSI09:1,2011-09-02T10:00:00Z,29.1015,-89.9782,0.0,11.55,117.0,,'11111222,11111222,99999999' 
WAVCIS,ioos:station:WAVCIS:CSI09:1,2011-09-02T11:00:00Z,29.1015,-89.9782,0.0,11.62,120.0,,'11111222,11111222,99999999' 
WAVCIS,ioos:station:WAVCIS:CSI09:1,2011-09-02T12:00:00Z,29.1015,-89.9782,0.0,10.33,115.0,,'11111222,11111222,99999999' 
WAVCIS,ioos:station:WAVCIS:CSI09:1,2011-09-02T13:00:00Z,29.1015,-89.9782,0.0,12.29,130.0,,'11111222,11111222,99999999' 
WAVCIS,ioos:station:WAVCIS:CSI09:1,2011-09-02T14:00:00Z,29.1015,-89.9782,0.0,11.96,144.0,,'11111222,11111222,99999999' 
WAVCIS,ioos:station:WAVCIS:CSI09:1,2011-09-02T15:00:00Z,29.1015,-89.9782,0.0,12.66,98.0,,'11111222,11111222,99999999' 
WAVCIS,ioos:station:WAVCIS:CSI09:1,2011-09-02T16:00:00Z,29.1015,-89.9782,0.0,13.17,109.0,,'11111222,11111222,99999999' 
WAVCIS,ioos:station:WAVCIS:CSI09:1,2011-09-02T17:00:00Z,29.1015,-89.9782,0.0,13.21,110.0,,'11111222,11111222,99999999' 
WAVCIS,ioos:station:WAVCIS:CSI09:1,2011-09-02T18:00:00Z,29.1015,-89.9782,0.0,12.34,90.0,,'11111222,11111222,99999999' 
WAVCIS,ioos:station:WAVCIS:CSI09:1,2011-09-02T19:00:00Z,29.1015,-89.9782,0.0,12.06,96.0,,'11111222,11111222,99999999' 
WAVCIS,ioos:station:WAVCIS:CSI09:1,2011-09-02T20:00:00Z,29.1015,-89.9782,0.0,14.97,84.0,,'11111222,11111222,99999999' 
WAVCIS,ioos:station:WAVCIS:CSI09:1,2011-09-02T21:00:00Z,29.1015,-89.9782,0.0,12.03,94.0,,'11111222,11111222,99999999' 
WAVCIS,ioos:station:WAVCIS:CSI09:1,2011-09-02T22:00:00Z,29.1015,-89.9782,0.0,16.17,69.0,,'11111222,11111222,99999999' 
WAVCIS,ioos:station:WAVCIS:CSI09:1,2011-09-02T23:00:00Z,29.1015,-89.9782,0.0,11.18,129.0,,'11111222,11111222,99999999' 
WAVCIS,ioos:station:WAVCIS:CSI09:1,2011-09-03T00:00:00Z,29.1015,-89.9782,0.0,15.74,129.0,,'11111222,11111222,99999999' 
WAVCIS,ioos:station:WAVCIS:CSI09:1,2011-09-03T01:00:00Z,29.1015,-89.9782,0.0,12.62,97.0,,'11111222,11111222,99999999' 
WAVCIS,ioos:station:WAVCIS:CSI09:1,2011-09-03T02:00:00Z,29.1015,-89.9782,0.0,14.67,82.0,,'11111222,11111222,99999999' 
WAVCIS,ioos:station:WAVCIS:CSI09:1,2011-09-03T03:00:00Z,29.1015,-89.9782,0.0,13.33,97.0,,'11111222,11111222,99999999' 
WAVCIS,ioos:station:WAVCIS:CSI09:1,2011-09-03T04:00:00Z,29.1015,-89.9782,0.0,11.88,104.0,,'11111222,11111222,99999999' 
WAVCIS,ioos:station:WAVCIS:CSI09:1,2011-09-03T05:00:00Z,29.1015,-89.9782,0.0,14.69,120.0,,'11111222,11111222,99999999' 
WAVCIS,ioos:station:WAVCIS:CSI09:1,2011-09-03T06:00:00Z,29.1015,-89.9782,0.0,15.9,123.0,,'11111222,11111222,99999999' 
WAVCIS,ioos:station:WAVCIS:CSI09:1,2011-09-03T07:00:00Z,29.1015,-89.9782,0.0,19.36,127.0,,'11111222,11111222,99999999' 
WAVCIS,ioos:station:WAVCIS:CSI09:1,2011-09-03T08:00:00Z,29.1015,-89.9782,0.0,16.59,131.0,,'11111222,11111222,99999999' 
WAVCIS,ioos:station:WAVCIS:CSI09:1,2011-09-03T09:00:00Z,29.1015,-89.9782,0.0,15.95,139.0,,'11111222,11111222,99999999' 
WAVCIS,ioos:station:WAVCIS:CSI09:1,2011-09-03T10:00:00Z,29.1015,-89.9782,0.0,19.65,159.0,,'11111222,11111222,99999999' 
WAVCIS,ioos:station:WAVCIS:CSI09:1,2011-09-03T11:00:00Z,29.1015,-89.9782,0.0,15.7,153.0,,'11111222,11111222,99999999' 
WAVCIS,ioos:station:WAVCIS:CSI09:1,2011-09-03T12:00:00Z,29.1015,-89.9782,0.0,16.38,147.0,,'11111222,11111222,99999999' 
WAVCIS,ioos:station:WAVCIS:CSI09:1,2011-09-03T13:00:00Z,29.1015,-89.9782,0.0,17.36,152.0,,'11111222,11111222,99999999' 
WAVCIS,ioos:station:WAVCIS:CSI09:1,2011-09-03T14:00:00Z,29.1015,-89.9782,0.0,15.83,145.0,,'11111222,11111222,99999999' 
WAVCIS,ioos:station:WAVCIS:CSI09:1,2011-09-03T15:00:00Z,29.1015,-89.9782,0.0,14.15,160.0,,'11111222,11111222,99999999' 
WAVCIS,ioos:station:WAVCIS:CSI09:1,2011-09-03T16:00:00Z,29.1015,-89.9782,0.0,12.62,160.0,,'11111222,11111222,99999999' 
WAVCIS,ioos:station:WAVCIS:CSI09:1,2011-09-03T17:00:00Z,29.1015,-89.9782,0.0,11.66,153.0,,'11111222,11111222,99999999' 
WAVCIS,ioos:station:WAVCIS:CSI09:1,2011-09-03T18:00:00Z,29.1015,-89.9782,0.0,12.21,154.0,,'11111222,11111222,99999999' 
WAVCIS,ioos:station:WAVCIS:CSI09:1,2011-09-03T19:00:00Z,29.1015,-89.9782,0.0,12.1,131.0,,'11111222,11111222,99999999' 
WAVCIS,ioos:station:WAVCIS:CSI09:1,2011-09-03T20:00:00Z,29.1015,-89.9782,0.0,13.93,143.0,,'11111222,11111222,99999999' 
WAVCIS,ioos:station:WAVCIS:CSI09:1,2011-09-03T21:00:00Z,29.1015,-89.9782,0.0,9.51,154.0,,'11111222,11111222,99999999' 
WAVCIS,ioos:station:WAVCIS:CSI09:1,2011-09-03T22:00:00Z,29.1015,-89.9782,0.0,9.69,134.0,,'11111222,11111222,99999999' 
WAVCIS,ioos:station:WAVCIS:CSI09:1,2011-09-03T23:00:00Z,29.1015,-89.9782,0.0,9.88,153.0,,'11111222,11111222,99999999' 
WAVCIS,ioos:station:WAVCIS:CSI09:1,2011-09-04T00:00:00Z,29.1015,-89.9782,0.0,13.5,174.0,,'11111222,11111222,99999999' 
WAVCIS,ioos:station:WAVCIS:CSI09:1,2011-09-04T01:00:00Z,29.1015,-89.9782,0.0,13.03,184.0,,'11111222,11111222,99999999' 
WAVCIS,ioos:station:WAVCIS:CSI09:1,2011-09-04T02:00:00Z,29.1015,-89.9782,0.0,14.53,179.0,,'11111222,11111222,99999999' 
WAVCIS,ioos:station:WAVCIS:CSI09:1,2011-09-04T03:00:00Z,29.1015,-89.9782,0.0,10.06,195.0,,'11111222,11111222,99999999' 
WAVCIS,ioos:station:WAVCIS:CSI09:1,2011-09-04T04:00:00Z,29.1015,-89.9782,0.0,13.53,176.0,,'11111222,11111222,99999999' 
WAVCIS,ioos:station:WAVCIS:CSI09:1,2011-09-04T05:00:00Z,29.1015,-89.9782,0.0,11.6,185.0,,'11111222,11111222,99999999' 
WAVCIS,ioos:station:WAVCIS:CSI09:1,2011-09-04T06:00:00Z,29.1015,-89.9782,0.0,11.73,188.0,,'11111222,11111222,99999999' 
WAVCIS,ioos:station:WAVCIS:CSI09:1,2011-09-04T07:00:00Z,29.1015,-89.9782,0.0,11.0,188.0,,'11111222,11111222,99999999' 
WAVCIS,ioos:station:WAVCIS:CSI09:1,2011-09-04T08:00:00Z,29.1015,-89.9782,0.0,11.29,203.0,,'11111222,11111222,99999999' 
WAVCIS,ioos:station:WAVCIS:CSI09:1,2011-09-04T09:00:00Z,29.1015,-89.9782,0.0,16.71,174.0,,'11111222,11111222,99999999' 
WAVCIS,ioos:station:WAVCIS:CSI09:1,2011-09-04T10:00:00Z,29.1015,-89.9782,0.0,17.39,175.0,,'11111222,11111222,99999999' 
WAVCIS,ioos:station:WAVCIS:CSI09:1,2011-09-04T11:00:00Z,29.1015,-89.9782,0.0,18.55,176.0,,'11111222,11111222,99999999' 
WAVCIS,ioos:station:WAVCIS:CSI09:1,2011-09-04T12:00:00Z,29.1015,-89.9782,0.0,18.81,177.0,,'11111222,11111222,99999999' 
WAVCIS,ioos:station:WAVCIS:CSI09:1,2011-09-04T13:00:00Z,29.1015,-89.9782,0.0,12.43,215.0,,'11111222,11111222,99999999' 
WAVCIS,ioos:station:WAVCIS:CSI09:1,2011-09-04T14:00:00Z,29.1015,-89.9782,0.0,12.04,196.0,,'11111222,11111222,99999999' 
WAVCIS,ioos:station:WAVCIS:CSI09:1,2011-09-04T15:00:00Z,29.1015,-89.9782,0.0,14.31,205.0,,'11111222,11111222,99999999' 
WAVCIS,ioos:station:WAVCIS:CSI09:1,2011-09-04T16:00:00Z,29.1015,-89.9782,0.0,8.85,209.0,,'11111222,11111222,99999999' 
WAVCIS,ioos:station:WAVCIS:CSI09:1,2011-09-04T17:00:00Z,29.1015,-89.9782,0.0,9.2,205.0,,'11111222,11111222,99999999' 
WAVCIS,ioos:station:WAVCIS:CSI09:1,2011-09-04T18:00:00Z,29.1015,-89.9782,0.0,8.6,209.0,,'11111222,11111222,99999999' 
WAVCIS,ioos:station:WAVCIS:CSI09:1,2011-09-04T19:00:00Z,29.1015,-89.9782,0.0,9.05,208.0,,'11111222,11111222,99999999' 
WAVCIS,ioos:station:WAVCIS:CSI09:1,2011-09-04T20:00:00Z,29.1015,-89.9782,0.0,7.52,207.0,,'11111222,11111222,99999999' 
WAVCIS,ioos:station:WAVCIS:CSI09:1,2011-09-04T21:00:00Z,29.1015,-89.9782,0.0,8.19,188.0,,'11111222,11111222,99999999' 
WAVCIS,ioos:station:WAVCIS:CSI09:1,2011-09-04T22:00:00Z,29.1015,-89.9782,0.0,9.33,204.0,,'11111222,11111222,99999999' 
WAVCIS,ioos:station:WAVCIS:CSI09:1,2011-09-04T23:00:00Z,29.1015,-89.9782,0.0,9.76,200.0,,'11111222,11111222,99999999' 
WAVCIS,ioos:station:WAVCIS:CSI09:1,2011-09-05T00:00:00Z,29.1015,-89.9782,0.0,8.6,192.0,,'11111222,11111222,99999999' 
WAVCIS,ioos:station:WAVCIS:CSI09:1,2011-09-05T01:00:00Z,29.1015,-89.9782,0.0,8.39,190.0,,'11111222,11111222,99999999' 
WAVCIS,ioos:station:WAVCIS:CSI09:1,2011-09-05T02:00:00Z,29.1015,-89.9782,0.0,10.27,197.0,,'11111222,11111222,99999999' 
WAVCIS,ioos:station:WAVCIS:CSI09:1,2011-09-05T03:00:00Z,29.1015,-89.9782,0.0,8.68,193.0,,'11111222,11111222,99999999' 
WAVCIS,ioos:station:WAVCIS:CSI09:1,2011-09-05T04:00:00Z,29.1015,-89.9782,0.0,9.05,196.0,,'11111222,11111222,99999999' 
WAVCIS,ioos:station:WAVCIS:CSI09:1,2011-09-05T05:00:00Z,29.1015,-89.9782,0.0,11.05,196.0,,'11111222,11111222,99999999' 
WAVCIS,ioos:station:WAVCIS:CSI09:1,2011-09-05T06:00:00Z,29.1015,-89.9782,0.0,11.45,205.0,,'11111222,11111222,99999999' 
WAVCIS,ioos:station:WAVCIS:CSI09:1,2011-09-05T07:00:00Z,29.1015,-89.9782,0.0,9.17,210.0,,'11111222,11111222,99999999' 
WAVCIS,ioos:station:WAVCIS:CSI09:1,2011-09-05T08:00:00Z,29.1015,-89.9782,0.0,8.22,208.0,,'11111222,11111222,99999999' 
WAVCIS,ioos:station:WAVCIS:CSI09:1,2011-09-05T09:00:00Z,29.1015,-89.9782,0.0,9.94,215.0,,'11111222,11111222,99999999' 
WAVCIS,ioos:station:WAVCIS:CSI09:1,2011-09-05T10:00:00Z,29.1015,-89.9782,0.0,8.72,207.0,,'11111222,11111222,99999999' 
WAVCIS,ioos:station:WAVCIS:CSI09:1,2011-09-05T11:00:00Z,29.1015,-89.9782,0.0,9.53,213.0,,'11111222,11111222,99999999' 
WAVCIS,ioos:station:WAVCIS:CSI09:1,2011-09-05T12:00:00Z,29.1015,-89.9782,0.0,14.79,234.0,,'11111222,11111222,99999999' 
WAVCIS,ioos:station:WAVCIS:CSI09:1,2011-09-05T13:00:00Z,29.1015,-89.9782,0.0,14.8,231.0,,'11111222,11111222,99999999' 
WAVCIS,ioos:station:WAVCIS:CSI09:1,2011-09-05T14:00:00Z,29.1015,-89.9782,0.0,14.69,280.0,,'11111222,11111222,99999999' 
WAVCIS,ioos:station:WAVCIS:CSI09:1,2011-09-05T15:00:00Z,29.1015,-89.9782,0.0,13.58,300.0,,'11111222,11111222,99999999' 
WAVCIS,ioos:station:WAVCIS:CSI09:1,2011-09-05T16:00:00Z,29.1015,-89.9782,0.0,13.3,307.0,,'11111222,11111222,99999999' 
WAVCIS,ioos:station:WAVCIS:CSI09:1,2011-09-05T17:00:00Z,29.1015,-89.9782,0.0,14.71,310.0,,'11111222,11111222,99999999' 
WAVCIS,ioos:station:WAVCIS:CSI09:1,2011-09-05T18:00:00Z,29.1015,-89.9782,0.0,14.36,300.0,,'11111222,11111222,99999999' 
WAVCIS,ioos:station:WAVCIS:CSI09:1,2011-09-05T19:00:00Z,29.1015,-89.9782,0.0,9.91,312.0,,'11111222,11111222,99999999' 
WAVCIS,ioos:station:WAVCIS:CSI09:1,2011-09-05T20:00:00Z,29.1015,-89.9782,0.0,10.17,319.0,,'11111222,11111222,99999999' 
WAVCIS,ioos:station:WAVCIS:CSI09:1,2011-09-05T21:00:00Z,29.1015,-89.9782,0.0,11.88,322.0,,'11111222,11111222,99999999' 
WAVCIS,ioos:station:WAVCIS:CSI09:1,2011-09-05T22:00:00Z,29.1015,-89.9782,0.0,11.09,330.0,,'11111222,11111222,99999999' 
WAVCIS,ioos:station:WAVCIS:CSI09:1,2011-09-05T23:00:00Z,29.1015,-89.9782,0.0,11.35,340.0,,'11111222,11111222,99999999' 
WAVCIS,ioos:station:WAVCIS:CSI09:1,2011-09-06T00:00:00Z,29.1015,-89.9782,0.0,13.05,334.0,,'11111222,11111222,99999999' 
WAVCIS,ioos:station:WAVCIS:CSI09:1,2011-09-06T01:00:00Z,29.1015,-89.9782,0.0,14.11,331.0,,'11111222,11111222,99999999' 
WAVCIS,ioos:station:WAVCIS:CSI09:1,2011-09-06T02:00:00Z,29.1015,-89.9782,0.0,13.18,335.0,,'11111222,11111222,99999999' 
WAVCIS,ioos:station:WAVCIS:CSI09:1,2011-09-06T03:00:00Z,29.1015,-89.9782,0.0,13.73,344.0,,'11111222,11111222,99999999' 
WAVCIS,ioos:station:WAVCIS:CSI09:1,2011-09-06T04:00:00Z,29.1015,-89.9782,0.0,14.85,6.0,,'11111222,11111222,99999999' 
WAVCIS,ioos:station:WAVCIS:CSI09:1,2011-09-06T05:00:00Z,29.1015,-89.9782,0.0,13.55,2.0,,'11111222,11111222,99999999' 
WAVCIS,ioos:station:WAVCIS:CSI09:1,2011-09-06T06:00:00Z,29.1015,-89.9782,0.0,9.87,9.0,,'11111222,11111222,99999999' 
WAVCIS,ioos:station:WAVCIS:CSI09:1,2011-09-06T07:00:00Z,29.1015,-89.9782,0.0,9.69,7.0,,'11111222,11111222,99999999' 
WAVCIS,ioos:station:WAVCIS:CSI09:1,2011-09-06T08:00:00Z,29.1015,-89.9782,0.0,8.86,15.0,,'11111222,11111222,99999999' 
WAVCIS,ioos:station:WAVCIS:CSI09:1,2011-09-06T09:00:00Z,29.1015,-89.9782,0.0,8.07,0.0,,'11111222,11111222,99999999' 
WAVCIS,ioos:station:WAVCIS:CSI09:1,2011-09-06T10:00:00Z,29.1015,-89.9782,0.0,9.03,10.0,,'11111222,11111222,99999999' 
WAVCIS,ioos:station:WAVCIS:CSI09:1,2011-09-06T11:00:00Z,29.1015,-89.9782,0.0,8.44,357.0,,'11111222,11111222,99999999' 
WAVCIS,ioos:station:WAVCIS:CSI09:1,2011-09-06T12:00:00Z,29.1015,-89.9782,0.0,8.16,356.0,,'11111222,11111222,99999999' 
WAVCIS,ioos:station:WAVCIS:CSI09:1,2011-09-06T13:00:00Z,29.1015,-89.9782,0.0,7.63,348.0,,'11111222,11111222,99999999' 
WAVCIS,ioos:station:WAVCIS:CSI09:1,2011-09-06T14:00:00Z,29.1015,-89.9782,0.0,7.45,354.0,,'11111222,11111222,99999999' 
WAVCIS,ioos:station:WAVCIS:CSI09:1,2011-09-06T15:00:00Z,29.1015,-89.9782,0.0,6.566,354.0,,'11111222,11111222,99999999' 
WAVCIS,ioos:station:WAVCIS:CSI09:1,2011-09-06T16:00:00Z,29.1015,-89.9782,0.0,6.07,346.0,,'11111222,11111222,99999999' 
WAVCIS,ioos:station:WAVCIS:CSI09:1,2011-09-06T17:00:00Z,29.1015,-89.9782,0.0,4.992,352.0,,'11111222,11111222,99999999' 
WAVCIS,ioos:station:WAVCIS:CSI09:1,2011-09-06T18:00:00Z,29.1015,-89.9782,0.0,5.164,333.0,,'11111222,11111222,99999999' 
WAVCIS,ioos:station:WAVCIS:CSI09:1,2011-09-06T19:00:00Z,29.1015,-89.9782,0.0,5.265,353.0,,'11111222,11111222,99999999' 
WAVCIS,ioos:station:WAVCIS:CSI09:1,2011-09-06T20:00:00Z,29.1015,-89.9782,0.0,5.079,346.0,,'11111222,11111222,99999999' 
WAVCIS,ioos:station:WAVCIS:CSI09:1,2011-09-06T21:00:00Z,29.1015,-89.9782,0.0,5.91,332.0,,'11111222,11111222,99999999' 
WAVCIS,ioos:station:WAVCIS:CSI09:1,2011-09-06T22:00:00Z,29.1015,-89.9782,0.0,4.802,350.0,,'11111222,11111222,99999999' 
WAVCIS,ioos:station:WAVCIS:CSI09:1,2011-09-06T23:00:00Z,29.1015,-89.9782,0.0,5.107,344.0,,'11111222,11111222,99999999' 
WAVCIS,ioos:station:WAVCIS:CSI09:1,2011-09-07T00:00:00Z,29.1015,-89.9782,0.0,5.978,340.0,,'11111222,11111222,99999999' 
WAVCIS,ioos:station:WAVCIS:CSI09:1,2011-09-07T01:00:00Z,29.1015,-89.9782,0.0,6.86,346.0,,'11111222,11111222,99999999' 
WAVCIS,ioos:station:WAVCIS:CSI09:1,2011-09-07T02:00:00Z,29.1015,-89.9782,0.0,6.643,344.0,,'11111222,11111222,99999999' 
WAVCIS,ioos:station:WAVCIS:CSI09:1,2011-09-07T03:00:00Z,29.1015,-89.9782,0.0,6.772,345.0,,'11111222,11111222,99999999' 
WAVCIS,ioos:station:WAVCIS:CSI09:1,2011-09-07T04:00:00Z,29.1015,-89.9782,0.0,7.47,9.0,,'11111222,11111222,99999999' 
WAVCIS,ioos:station:WAVCIS:CSI09:1,2011-09-07T05:00:00Z,29.1015,-89.9782,0.0,8.69,25.0,,'11111222,11111222,99999999' 
WAVCIS,ioos:station:WAVCIS:CSI09:1,2011-09-07T06:00:00Z,29.1015,-89.9782,0.0,7.99,26.0,,'11111222,11111222,99999999' 
WAVCIS,ioos:station:WAVCIS:CSI09:1,2011-09-07T07:00:00Z,29.1015,-89.9782,0.0,8.44,19.0,,'11111222,11111222,99999999' 
WAVCIS,ioos:station:WAVCIS:CSI09:1,2011-09-07T08:00:00Z,29.1015,-89.9782,0.0,8.88,15.0,,'11111222,11111222,99999999' 
WAVCIS,ioos:station:WAVCIS:CSI09:1,2011-09-07T09:00:00Z,29.1015,-89.9782,0.0,8.06,20.0,,'11111222,11111222,99999999' 
WAVCIS,ioos:station:WAVCIS:CSI09:1,2011-09-07T10:00:00Z,29.1015,-89.9782,0.0,8.58,19.0,,'11111222,11111222,99999999' 
WAVCIS,ioos:station:WAVCIS:CSI09:1,2011-09-07T11:00:00Z,29.1015,-89.9782,0.0,8.39,21.0,,'11111222,11111222,99999999' 
WAVCIS,ioos:station:WAVCIS:CSI09:1,2011-09-07T12:00:00Z,29.1015,-89.9782,0.0,8.21,19.0,,'11111222,11111222,99999999' 
WAVCIS,ioos:station:WAVCIS:CSI09:1,2011-09-07T13:00:00Z,29.1015,-89.9782,0.0,8.03,23.0,,'11111222,11111222,99999999' 
WAVCIS,ioos:station:WAVCIS:CSI09:1,2011-09-07T14:00:00Z,29.1015,-89.9782,0.0,8.02,24.0,,'11111222,11111222,99999999' 
WAVCIS,ioos:station:WAVCIS:CSI09:1,2011-09-07T15:00:00Z,29.1015,-89.9782,0.0,7.67,23.0,,'11111222,11111222,99999999' 
WAVCIS,ioos:station:WAVCIS:CSI09:1,2011-09-07T16:00:00Z,29.1015,-89.9782,0.0,7.27,20.0,,'11111222,11111222,99999999' 
WAVCIS,ioos:station:WAVCIS:CSI09:1,2011-09-07T17:00:00Z,29.1015,-89.9782,0.0,6.938,15.0,,'11111222,11111222,99999999' 
WAVCIS,ioos:station:WAVCIS:CSI09:1,2011-09-07T18:00:00Z,29.1015,-89.9782,0.0,6.453,12.0,,'11111222,11111222,99999999' 
WAVCIS,ioos:station:WAVCIS:CSI09:1,2011-09-07T19:00:00Z,29.1015,-89.9782,0.0,5.667,9.0,,'11111222,11111222,99999999' 
WAVCIS,ioos:station:WAVCIS:CSI09:1,2011-09-07T20:00:00Z,29.1015,-89.9782,0.0,5.912,15.0,,'11111222,11111222,99999999' 
WAVCIS,ioos:station:WAVCIS:CSI09:1,2011-09-07T21:00:00Z,29.1015,-89.9782,0.0,4.587,31.0,,'11111222,11111222,99999999' 
WAVCIS,ioos:station:WAVCIS:CSI09:1,2011-09-07T22:00:00Z,29.1015,-89.9782,0.0,4.021,14.0,,'11111222,11111222,99999999' 
WAVCIS,ioos:station:WAVCIS:CSI09:1,2011-09-07T23:00:00Z,29.1015,-89.9782,0.0,4.047,28.0,,'11111222,11111222,99999999' 
WAVCIS,ioos:station:WAVCIS:CSI09:1,2011-09-08T00:00:00Z,29.1015,-89.9782,0.0,4.046,22.0,,'11111222,11111222,99999999' 
WAVCIS,ioos:station:WAVCIS:CSI09:1,2011-09-08T01:00:00Z,29.1015,-89.9782,0.0,5.525,23.0,,'11111222,11111222,99999999' 
WAVCIS,ioos:station:WAVCIS:CSI09:1,2011-09-08T02:00:00Z,29.1015,-89.9782,0.0,4.44,25.0,,'11111222,11111222,99999999' 
WAVCIS,ioos:station:WAVCIS:CSI09:1,2011-09-08T03:00:00Z,29.1015,-89.9782,0.0,5.712,13.0,,'11111222,11111222,99999999' 
WAVCIS,ioos:station:WAVCIS:CSI09:1,2011-09-08T04:00:00Z,29.1015,-89.9782,0.0,7.38,25.0,,'11111222,11111222,99999999' 
WAVCIS,ioos:station:WAVCIS:CSI09:1,2011-09-08T05:00:00Z,29.1015,-89.9782,0.0,7.13,34.0,,'11111222,11111222,99999999' 
WAVCIS,ioos:station:WAVCIS:CSI09:1,2011-09-08T06:00:00Z,29.1015,-89.9782,0.0,6.496,31.0,,'11111222,11111222,99999999' 
WAVCIS,ioos:station:WAVCIS:CSI09:1,2011-09-08T07:00:00Z,29.1015,-89.9782,0.0,6.767,26.0,,'11111222,11111222,99999999' 
WAVCIS,ioos:station:WAVCIS:CSI09:1,2011-09-08T08:00:00Z,29.1015,-89.9782,0.0,6.424,25.0,,'11111222,11111222,99999999' 
WAVCIS,ioos:station:WAVCIS:CSI09:1,2011-09-08T09:00:00Z,29.1015,-89.9782,0.0,6.896,22.0,,'11111222,11111222,99999999' 
WAVCIS,ioos:station:WAVCIS:CSI09:1,2011-09-08T10:00:00Z,29.1015,-89.9782,0.0,6.698,11.0,,'11111222,11111222,99999999' 
WAVCIS,ioos:station:WAVCIS:CSI09:1,2011-09-08T11:00:00Z,29.1015,-89.9782,0.0,7.56,11.0,,'11111222,11111222,99999999' 
WAVCIS,ioos:station:WAVCIS:CSI09:1,2011-09-08T12:00:00Z,29.1015,-89.9782,0.0,7.26,25.0,,'11111222,11111222,99999999' 
WAVCIS,ioos:station:WAVCIS:CSI09:1,2011-09-08T13:00:00Z,29.1015,-89.9782,0.0,6.621,24.0,,'11111222,11111222,99999999' 
WAVCIS,ioos:station:WAVCIS:CSI09:1,2011-09-08T14:00:00Z,29.1015,-89.9782,0.0,6.469,35.0,,'11111222,11111222,99999999' 
WAVCIS,ioos:station:WAVCIS:CSI09:1,2011-09-08T15:00:00Z,29.1015,-89.9782,0.0,6.284,29.0,,'11111222,11111222,99999999' 
WAVCIS,ioos:station:WAVCIS:CSI09:1,2011-09-08T16:00:00Z,29.1015,-89.9782,0.0,6.763,26.0,,'11111222,11111222,99999999' 
WAVCIS,ioos:station:WAVCIS:CSI09:1,2011-09-08T17:00:00Z,29.1015,-89.9782,0.0,5.812,30.0,,'11111222,11111222,99999999' 
WAVCIS,ioos:station:WAVCIS:CSI09:1,2011-09-08T18:00:00Z,29.1015,-89.9782,0.0,4.706,21.0,,'11111222,11111222,99999999' 
WAVCIS,ioos:station:WAVCIS:CSI09:1,2011-09-08T19:00:00Z,29.1015,-89.9782,0.0,3.796,21.0,,'11111222,11111222,99999999' 
WAVCIS,ioos:station:WAVCIS:CSI09:1,2011-09-08T20:00:00Z,29.1015,-89.9782,0.0,3.057,33.0,,'11111222,11111222,99999999' 
WAVCIS,ioos:station:WAVCIS:CSI09:1,2011-09-08T21:00:00Z,29.1015,-89.9782,0.0,3.453,32.0,,'11111222,11111222,99999999' 
WAVCIS,ioos:station:WAVCIS:CSI09:1,2011-09-08T22:00:00Z,29.1015,-89.9782,0.0,2.777,39.0,,'11111222,11111222,99999999' 
WAVCIS,ioos:station:WAVCIS:CSI09:1,2011-09-08T23:00:00Z,29.1015,-89.9782,0.0,2.595,42.0,,'11111222,11111222,99999999' 
WAVCIS,ioos:station:WAVCIS:CSI09:1,2011-09-09T00:00:00Z,29.1015,-89.9782,0.0,2.913,68.0,,'11111222,11111222,99999999' 
WAVCIS,ioos:station:WAVCIS:CSI09:1,2011-09-09T01:00:00Z,29.1015,-89.9782,0.0,2.534,76.0,,'11111222,11111222,99999999' 
WAVCIS,ioos:station:WAVCIS:CSI09:1,2011-09-09T02:00:00Z,29.1015,-89.9782,0.0,1.711,62.0,,'11111222,11111222,99999999' 
WAVCIS,ioos:station:WAVCIS:CSI09:1,2011-09-09T03:00:00Z,29.1015,-89.9782,0.0,0.992,91.0,,'11111222,11111222,99999999' 
WAVCIS,ioos:station:WAVCIS:CSI09:1,2011-09-09T04:00:00Z,29.1015,-89.9782,0.0,0.46,96.0,,'11111222,11111222,99999999' 
WAVCIS,ioos:station:WAVCIS:CSI09:1,2011-09-09T05:00:00Z,29.1015,-89.9782,0.0,0.623,354.0,,'11111222,11111222,99999999' 
WAVCIS,ioos:station:WAVCIS:CSI09:1,2011-09-09T06:00:00Z,29.1015,-89.9782,0.0,0.281,306.0,,'11111222,11111222,99999999' 
WAVCIS,ioos:station:WAVCIS:CSI09:1,2011-09-09T07:00:00Z,29.1015,-89.9782,0.0,1.575,303.0,,'11111222,11111222,99999999' 